Temperature
21 21 21 21 21 22 20 20 19 18 17 15 15 15 12 11 11 8 6 6 6 7 8 8 8 7 7 7 7 7 7 7 6 6 6 5 5 5 5 5 5 5 5 6 6 6 7 7 8
21 21 21 22 22 21 19 19 18 17 15 15 15 15 13 10 8 6 6 6 6 7 8 8 8 7 7 7 7 7 6 6 6 5 5 5 5 4 4 4 4 4 4 4 5 5 5 6 7
22 21 22 22 22 21 19 19 16 15 15 15 14 13 12 10 8 6 6 6 6 7 8 8 8 8 7 7 7 7 6 6 5 5 5 5 4 4 4 4 4 4 4 4 4 4 4 4 5
21 22 24 23 20 20 20 17 16 15 15 15 13 10 9 8 7 6 6 6 6 7 7 8 8 8 7 7 7 6 6 5 5 5 4 4 4 4 4 4 4 4 4 3 3 3 3 3 3
22 23 23 21 19 20 19 17 16 16 15 15 14 10 7 7 6 6 6 6 6 7 7 8 8 7 7 7 6 6 6 5 4 4 4 4 3 3 3 3 4 4 3 3 3 3 2 2 2
23 24 22 21 19 19 18 17 17 17 15 14 13 10 7 6 6 5 6 6 6 7 7 7 7 7 6 6 6 5 5 4 4 3 3 3 3 3 3 3 3 3 3 3 3 2 2 2 2
23 22 22 21 18 18 18 17 18 17 15 14 14 11 7 6 5 5 5 5 6 6 7 6 6 6 6 5 5 5 4 4 4 3 3 4 4 4 3 4 4 3 3 3 3 2 2 1 1
22 22 23 21 18 18 17 17 17 16 15 13 14 12 8 7 6 5 5 5 6 6 6 6 6 6 6 5 5 4 4 4 3 3 3 4 4 4 4 3 3 3 2 2 2 1 1 1 1
22 21 22 21 20 17 16 15 14 14 12 12 12 11 10 8 6 5 5 5 5 5 5 6 6 6 5 5 4 4 4 3 3 3 3 3 3 3 3 2 2 1 1 1 0 0 -0 -0 0
22 20 18 18 19 17 16 15 13 13 12 11 10 9 8 7 6 6 6 5 5 4 5 5 6 5 5 5 4 4 3 3 3 2 2 2 2 2 1 1 0 0 -0 -1 -1 -1 -1 -1 -1
19 18 17 17 17 16 16 15 13 13 13 12 10 8 7 7 6 6 6 5 5 4 5 5 5 5 5 4 4 3 2 2 2 2 1 1 1 1 0 -0 -1 -1 -2 -2 -3 -3 -3 -3 -3
18 17 16 15 16 16 15 14 13 14 14 14 12 9 7 6 6 6 6 5 4 4 4 4 5 5 4 4 3 2 2 1 1 1 0 0 0 -0 -1 -1 -2 -3 -4 -4 -5 -5 -5 -5 -5
17 15 14 13 15 15 15 14 14 14 13 12 11 9 7 6 6 6 6 5 4 4 4 4 4 4 4 3 3 2 1 1 0 0 -0 -1 -1 -1 -2 -2 -3 -4 -5 -5 -5 -6 -6 -6 -6
16 15 14 14 14 14 14 14 13 13 12 11 10 8 7 7 7 6 6 5 4 3 3 4 4 4 4 3 2 1 1 0 -0 -0 -1 -1 -2 -2 -3 -3 -4 -5 -6 -6 -6 -7 -7 -8 -8
16 15 14 14 14 14 14 14 13 14 12 10 9 8 7 7 7 6 5 5 4 3 3 4 4 4 3 2 2 1 0 -0 -0 -1 -1 -2 -2 -3 -4 -4 -5 -6 -6 -7 -7 -8 -8 -8 -9
18 17 16 15 15 13 13 14 16 14 11 10 9 8 8 7 7 6 6 5 4 3 3 3 4 3 3 2 1 1 0 -0 -1 -1 -1 -2 -3 -4 -4 -5 -6 -7 -7 -7 -8 -8 -9 -9 -9
18 18 19 15 15 14 12 14 14 12 11 10 9 9 8 8 7 6 6 5 3 3 3 3 3 3 3 2 1 1 -0 -0 -1 -1 -2 -3 -3 -4 -5 -6 -6 -7 -8 -8 -9 -9 -10 -10 -10
20 21 21 18 15 15 13 14 14 12 11 11 10 10 9 8 7 7 6 5 3 3 2 2 3 3 2 2 1 1 0 -0 -1 -1 -2 -3 -4 -5 -6 -6 -7 -8 -8 -8 -9 -10 -10 -10 -10
20 20 20 19 16 15 15 15 16 13 11 11 11 11 10 9 9 7 6 5 3 2 2 2 2 2 2 2 1 1 0 -0 -1 -2 -3 -4 -4 -5 -6 -7 -7 -8 -9 -9 -9 -10 -10 -10 -10
19 19 20 17 16 15 15 15 16 14 11 11 12 12 11 10 9 8 7 5 4 3 2 1 2 2 2 2 1 1 0 -0 -1 -3 -3 -4 -5 -6 -7 -8 -8 -9 -9 -9 -10 -10 -10 -10 -10
19 19 18 18 18 16 14 16 16 16 13 12 12 12 12 11 10 9 7 5 4 2 2 1 2 2 2 1 1 0 -0 -1 -2 -3 -4 -4 -6 -6 -7 -8 -9 -9 -9 -10 -10 -10 -10 -10 -10
18 17 17 17 15 16 16 15 15 14 13 12 12 12 12 12 11 10 8 6 4 3 2 1 1 2 1 1 1 -0 -1 -1 -2 -3 -4 -5 -6 -7 -8 -8 -9 -9 -10 -10 -10 -10 -10 -10 -10
17 16 16 16 15 16 17 16 17 15 14 13 13 13 12 12 11 10 9 7 5 3 2 2 1 1 1 1 0 -0 -1 -2 -3 -4 -5 -5 -6 -7 -8 -9 -9 -10 -10 -10 -10 -10 -10 -10 -10
16 16 15 15 15 16 18 17 18 16 17 16 15 15 14 12 11 10 9 7 5 3 2 2 1 1 1 1 0 -0 -1 -2 -3 -4 -5 -5 -6 -7 -8 -9 -9 -10 -10 -10 -10 -10 -10 -10 -10
15 16 16 16 15 17 17 17 17 18 18 18 16 16 14 13 11 10 8 6 5 3 2 2 1 1 1 0 -0 -1 -1 -2 -3 -4 -5 -6 -6 -7 -8 -9 -10 -10 -10 -10 -10 -10 -10 -10 -10
17 17 16 16 17 18 16 16 18 18 17 17 16 15 14 12 11 10 8 6 5 3 2 2 1 1 1 0 -0 -1 -2 -3 -3 -4 -5 -6 -7 -8 -8 -9 -10 -10 -10 -11 -11 -10 -10 -10 -10
17 17 16 15 17 16 17 19 18 16 15 14 14 13 12 12 10 9 7 6 4 3 2 1 1 1 1 0 -0 -1 -2 -3 -3 -4 -5 -6 -7 -8 -9 -9 -10 -10 -11 -11 -11 -11 -10 -10 -10
15 15 15 15 16 15 17 19 17 15 16 14 13 13 13 12 10 9 7 5 4 2 1 1 1 1 0 -0 -1 -1 -2 -3 -3 -4 -5 -6 -7 -8 -8 -9 -10 -10 -11 -11 -11 -11 -11 -10 -10
14 15 15 15 16 14 15 16 20 19 19 18 16 16 15 13 11 9 7 5 3 2 1 1 1 1 0 -0 -1 -1 -2 -3 -3 -4 -5 -6 -7 -7 -8 -9 -10 -10 -11 -11 -11 -11 -11 -11 -11
16 16 16 15 15 15 14 15 19 19 19 18 17 16 15 14 12 9 7 4 2 1 1 1 1 1 0 -0 -1 -1 -2 -3 -3 -4 -5 -6 -7 -7 -8 -9 -10 -10 -11 -11 -11 -11 -11 -11 -11
Wind_Speed
7 11 8 3 4 2 7 7 8 8 5 7 8 8 9 7 7 11 6 7 8 11 14 15 16 17 19 20 21 22 23 23 24 25 25 26 26 26 26 26 27 28 28 28 29 29 29 30 30
9 7 5 4 4 1 5 7 11 8 9 8 6 9 9 8 10 10 7 5 10 12 14 14 15 16 18 19 20 21 22 23 23 24 25 25 25 25 25 26 26 27 27 27 27 28 28 29 30
8 8 4 3 3 5 7 11 14 12 9 6 6 8 6 7 9 6 6 6 12 13 14 13 14 15 17 18 19 20 21 22 23 23 24 25 25 25 25 25 26 26 26 27 27 27 27 28 28
5 4 4 2 8 6 9 14 14 11 6 7 9 8 5 6 6 8 8 9 12 12 13 12 13 14 16 17 18 19 20 21 22 22 24 24 24 24 25 25 25 26 27 27 27 27 27 27 28
4 4 4 5 6 7 12 14 12 10 8 7 9 8 7 8 11 11 8 10 10 10 10 10 11 12 13 15 17 18 19 20 20 21 23 23 23 24 24 24 25 26 27 27 27 27 28 28 28
4 4 5 5 8 8 9 9 8 11 9 6 8 9 7 10 10 9 9 10 11 9 8 8 9 10 11 12 14 16 17 18 19 20 22 23 23 23 24 24 25 26 27 28 28 28 28 28 29
4 4 4 7 8 7 8 6 6 9 8 7 6 8 9 11 10 9 9 11 10 9 8 8 10 10 10 11 12 14 15 17 18 19 21 22 22 23 24 24 26 27 28 29 29 29 29 30 29
4 3 1 6 9 7 9 4 4 5 7 4 2 6 9 14 11 9 8 8 9 8 8 8 10 10 10 11 11 13 14 15 17 18 21 22 22 22 23 24 26 27 28 29 29 30 31 31 29
3 4 2 4 7 9 11 5 5 6 8 4 5 7 14 19 13 9 8 7 7 7 7 8 9 9 10 10 11 12 13 14 16 17 19 20 20 21 21 23 26 27 28 28 28 30 31 30 28
5 3 6 7 6 10 11 8 7 6 8 6 8 11 17 14 12 10 9 8 8 7 5 8 7 8 9 9 10 11 11 12 14 15 17 18 19 19 19 22 24 25 26 26 27 29 28 26 24
6 6 6 7 7 11 10 9 9 8 7 9 13 15 14 12 11 10 8 8 8 8 5 6 5 6 8 9 9 10 10 11 13 13 15 16 17 17 18 19 20 22 22 22 23 23 23 24 24
6 7 7 5 4 8 8 9 8 9 2 4 16 19 16 13 12 10 8 9 8 8 6 5 4 5 6 7 8 9 9 10 11 12 13 14 14 15 16 17 19 19 19 19 19 20 22 23 24
6 6 8 6 3 6 6 7 6 8 6 6 14 17 16 13 11 9 8 9 8 8 7 4 3 4 5 5 7 8 9 9 11 11 11 13 13 13 15 16 17 18 19 18 19 19 20 20 21
8 9 8 7 5 3 5 6 4 7 10 10 13 14 14 13 11 9 9 8 8 8 7 4 3 3 4 5 6 8 8 9 9 9 11 12 13 14 14 15 16 16 17 19 19 19 19 18 18
10 8 6 6 6 5 4 7 9 7 11 11 12 12 13 12 11 10 10 8 8 8 6 5 2 1 3 5 6 7 8 8 7 8 10 11 13 14 14 14 14 16 18 19 19 18 17 15 15
7 5 6 8 8 6 4 8 8 13 13 12 12 12 12 12 11 10 10 9 9 8 6 4 2 1 3 4 6 7 7 7 6 7 8 9 12 14 14 13 13 17 18 17 14 11 6 9 10
7 8 5 8 9 8 6 7 7 12 13 12 12 12 12 11 12 11 11 10 9 8 7 6 4 1 2 4 6 7 7 6 7 6 7 9 11 13 14 13 15 17 16 14 14 8 8 10 10
3 6 5 6 10 10 8 10 8 12 13 12 12 12 13 14 14 11 11 11 10 8 7 6 4 2 1 2 5 6 5 6 7 6 7 10 11 13 14 14 15 16 12 8 7 10 9 9 10
7 6 8 3 8 7 11 13 10 15 13 12 12 13 13 13 13 13 12 12 10 9 8 6 4 2 1 1 2 3 3 4 6 7 8 10 11 13 14 13 13 13 8 7 9 10 11 10 8
7 8 6 5 6 6 8 12 10 14 17 15 13 13 13 13 13 14 13 12 11 11 9 7 5 3 2 1 1 3 4 4 7 7 7 10 12 14 14 13 11 12 8 9 9 10 9 12 9
8 3 5 5 3 8 5 7 4 4 9 12 12 11 12 14 14 14 14 13 11 11 10 7 5 4 3 1 2 3 3 4 4 3 4 9 13 15 14 14 13 12 9 8 10 10 11 12 11
4 6 3 5 6 3 5 4 7 6 7 11 12 13 13 12 12 13 15 14 13 10 9 8 6 5 4 3 3 3 4 4 5 4 4 10 13 14 14 15 14 13 11 8 10 9 9 11 12
3 2 4 6 6 6 6 5 4 7 8 12 14 15 14 12 12 12 14 14 12 11 10 8 7 6 5 4 3 4 5 4 4 5 6 6 10 13 14 15 13 13 12 10 9 9 10 9 11
4 5 6 4 3 5 5 4 4 7 7 8 11 13 13 12 11 11 12 13 10 11 10 8 7 7 6 5 5 5 5 6 7 7 6 6 5 8 13 14 13 14 13 10 10 9 11 10 11
5 4 3 3 4 3 3 3 7 7 7 7 8 10 10 11 11 11 12 13 13 12 11 9 9 8 7 6 5 5 5 6 6 6 6 7 6 6 6 12 12 13 13 14 13 8 11 11 11
3 3 3 3 3 2 4 6 6 8 8 6 4 5 7 9 10 11 12 13 13 13 12 10 10 8 7 6 5 5 5 4 4 6 6 6 6 6 10 12 13 15 15 15 12 7 10 10 10
4 1 2 3 5 5 6 7 4 4 6 7 8 8 10 10 11 11 12 13 13 13 12 11 10 8 7 6 6 6 5 5 6 6 5 5 6 9 12 13 12 13 13 12 10 8 10 10 10
4 5 2 3 3 5 8 7 6 9 10 11 11 12 12 11 11 12 12 13 12 12 11 10 9 8 7 6 6 5 5 6 6 6 7 7 7 9 10 9 10 10 10 10 7 8 10 11 10
5 4 4 4 3 3 5 7 3 9 6 7 10 10 11 13 13 12 12 12 11 11 11 10 9 8 7 7 6 5 5 6 5 7 7 6 7 8 8 8 8 8 8 8 8 9 11 11 10
2 5 6 4 5 5 4 9 6 6 5 6 7 7 8 11 12 12 12 12 11 11 11 10 9 9 8 7 5 5 6 6 7 7 7 7 6 8 9 9 8 9 10 9 9 10 11 11 11
Wind_Direction
244 237 232 245 247 138 88 91 106 113 79 58 51 65 72 46 47 118 119 76 69 55 46 28 27 28 29 29 28 27 26 24 22 20 18 17 15 14 12 11 9 7 5 3 1 359 357 355 353
256 242 250 235 252 162 105 125 114 95 105 107 85 89 87 82 89 107 111 89 79 66 55 33 32 32 31 30 28 26 24 22 19 18 15 13 12 11 9 8 7 5 2 0 358 356 353 351 349
267 260 254 246 39 40 118 113 104 104 124 117 71 42 65 99 103 96 110 116 90 76 69 41 36 35 33 31 28 25 22 19 17 15 13 10 8 7 6 5 4 2 359 357 355 353 350 348 346
274 251 237 34 74 47 108 115 124 127 114 105 111 90 66 51 85 111 125 105 87 78 76 54 39 36 33 30 27 23 20 17 14 12 10 7 5 4 3 2 1 358 356 354 352 350 347 345 343
240 259 221 104 90 86 99 120 140 139 133 139 121 107 100 89 100 115 112 92 86 81 79 68 45 36 32 28 24 20 17 13 11 10 7 4 2 1 0 360 358 355 353 351 349 347 345 343 340
260 265 264 130 115 105 109 134 160 125 120 124 119 115 122 133 127 126 124 105 94 88 75 68 49 35 28 25 20 15 12 10 7 6 5 2 360 358 357 357 354 352 350 348 346 344 343 341 338
299 297 337 98 127 146 137 151 155 126 136 149 137 114 134 152 138 141 131 113 98 88 74 64 54 32 18 17 16 9 8 6 4 4 2 360 358 356 355 355 351 349 348 346 344 342 341 339 337
316 285 148 122 148 146 128 133 73 108 108 87 110 145 160 155 145 146 130 121 118 103 80 55 56 35 17 6 5 3 4 3 1 1 360 359 357 353 351 350 347 346 345 343 342 341 340 338 338
283 262 131 85 141 128 132 131 71 48 97 107 53 38 129 138 148 150 158 161 138 110 92 66 50 34 14 2 2 359 358 359 359 359 357 356 353 349 346 345 344 344 343 341 340 340 339 339 336
347 13 56 28 39 128 148 143 138 149 141 147 111 94 118 138 155 175 184 156 127 106 88 74 54 35 18 5 357 354 352 355 354 357 355 354 352 345 345 343 341 341 339 340 338 337 338 335 331
36 64 87 45 42 122 145 136 158 176 186 183 163 148 146 159 174 187 171 131 117 111 93 81 66 48 23 1 352 344 345 351 348 353 352 354 349 343 343 342 338 337 336 336 334 335 332 329 327
78 65 82 77 54 122 142 141 177 217 84 120 155 154 161 176 185 185 163 135 129 120 114 90 67 61 30 360 338 335 344 346 342 348 350 353 345 343 344 339 334 334 332 331 333 331 325 324 322
96 99 84 96 98 114 131 169 199 214 121 101 133 151 169 184 186 178 149 138 140 132 125 111 79 56 24 347 333 338 337 339 336 343 349 352 350 344 340 333 330 329 329 331 329 322 320 320 317
111 119 120 129 113 131 180 192 216 218 140 141 149 165 178 190 183 166 153 166 156 136 128 110 80 41 5 351 342 329 326 327 334 342 347 351 354 342 335 327 324 323 327 326 320 318 317 315 314
132 131 144 162 167 161 225 230 213 182 147 160 169 179 187 194 185 174 172 176 151 134 130 126 140 32 4 352 332 318 312 325 333 342 343 350 351 338 332 321 319 321 324 321 317 313 312 313 316
182 180 189 180 176 140 214 264 197 151 160 176 182 188 194 198 190 182 174 164 144 143 146 137 161 355 3 343 322 310 310 328 331 339 338 345 339 331 328 319 315 318 321 317 312 308 313 311 309
205 233 184 157 184 159 213 263 128 147 173 186 191 196 196 200 198 189 175 161 153 155 150 158 155 209 350 332 317 312 317 330 327 329 330 332 327 326 325 315 310 317 316 311 312 319 309 307 307
344 322 341 160 181 189 218 247 189 174 188 197 197 202 200 204 202 193 176 164 157 153 155 168 167 169 25 347 331 317 325 324 314 311 314 323 321 321 318 309 311 314 309 305 304 304 301 301 302
326 314 297 85 151 203 241 255 234 178 192 206 205 205 209 208 198 188 175 163 157 159 170 175 171 152 104 45 330 311 313 302 299 299 310 317 316 314 309 305 307 308 302 299 299 302 305 304 301
280 285 304 102 158 214 271 273 256 182 194 202 209 210 210 206 197 186 175 170 170 172 173 170 168 158 151 134 271 257 264 270 281 287 312 313 310 306 306 305 303 302 300 300 300 303 304 307 309
271 289 354 343 266 216 267 284 165 145 182 197 216 225 218 207 201 188 179 177 175 175 168 171 160 171 185 181 261 283 283 287 299 321 314 305 303 302 302 301 300 301 300 298 300 302 306 309 306
321 54 355 301 298 260 189 286 196 173 197 210 216 222 227 219 202 189 181 180 178 169 149 153 166 187 192 200 241 279 289 291 294 293 283 296 304 307 307 302 302 302 298 294 300 311 303 303 306
348 35 281 276 270 278 205 244 205 168 212 219 218 219 220 216 204 190 179 177 169 151 148 159 174 194 194 203 235 257 270 278 287 291 292 298 304 304 303 303 305 301 297 295 298 302 300 300 299
303 268 236 258 260 254 172 216 253 194 197 189 196 203 206 202 196 181 165 158 151 145 150 162 182 200 196 205 232 246 266 282 294 298 301 300 295 297 300 306 308 302 298 299 300 300 301 298 297
232 276 242 224 223 215 131 227 251 173 160 177 185 185 186 184 179 171 161 160 156 156 161 171 189 203 199 206 227 244 258 269 277 288 292 296 295 294 291 306 303 300 299 302 303 303 304 300 301
286 295 330 301 306 323 195 230 245 152 148 149 155 164 171 179 177 175 170 165 164 166 169 178 192 200 198 205 226 240 252 257 262 272 280 285 285 284 292 300 300 300 303 308 308 304 303 304 303
287 214 34 309 285 272 253 228 185 123 175 193 204 207 210 201 187 178 170 168 169 172 176 182 187 194 197 204 222 238 249 263 267 273 274 271 275 291 298 300 297 298 302 302 305 301 303 304 304
279 327 268 249 284 286 283 264 217 193 216 210 212 215 213 200 187 180 176 174 173 172 173 176 182 192 196 201 220 235 239 252 257 267 273 274 279 290 294 293 295 297 299 301 299 302 301 303 304
186 216 231 265 281 248 283 272 219 162 172 194 211 213 205 193 187 183 179 173 168 164 166 175 185 190 195 203 215 236 249 256 262 267 270 273 283 290 290 293 294 296 297 298 297 298 301 301 304
220 225 202 219 236 214 253 272 242 173 168 197 223 213 189 182 180 177 173 169 169 170 172 181 187 189 195 197 206 233 250 258 263 268 275 284 285 290 291 293 293 297 300 296 293 295 299 295 296
Height
1546 1547 1549 1551 1553 1555 1566 1569 1571 1579 1583 1588 1588 1589 1594 1600 1603 1615 1616 1613 1613 1612 1611 1609 1607 1605 1603 1601 1598 1596 1593 1591 1588 1586 1583 1581 1578 1576 1573 1571 1568 1566 1564 1561 1559 1557 1554 1552 1550
1547 1548 1551 1551 1553 1562 1572 1570 1575 1579 1586 1589 1590 1592 1596 1604 1607 1610 1611 1612 1612 1611 1610 1608 1606 1604 1602 1600 1598 1595 1593 1590 1588 1585 1583 1580 1578 1575 1572 1570 1567 1564 1562 1559 1557 1554 1552 1550 1548
1547 1549 1550 1548 1554 1563 1571 1571 1579 1584 1587 1589 1592 1595 1599 1606 1607 1608 1610 1611 1611 1610 1608 1607 1605 1603 1601 1599 1597 1595 1592 1590 1587 1585 1582 1579 1577 1574 1571 1568 1565 1562 1560 1557 1555 1552 1549 1547 1544
1548 1550 1549 1550 1563 1564 1565 1573 1579 1585 1588 1590 1592 1598 1602 1606 1606 1607 1608 1610 1609 1608 1607 1606 1604 1603 1601 1598 1596 1594 1591 1589 1586 1584 1581 1578 1576 1573 1570 1567 1564 1561 1558 1555 1552 1549 1547 1544 1541
1549 1549 1548 1558 1566 1566 1569 1575 1579 1583 1587 1590 1592 1598 1603 1605 1604 1605 1607 1608 1608 1607 1606 1605 1603 1602 1600 1597 1595 1593 1590 1588 1585 1583 1580 1577 1575 1572 1569 1566 1563 1559 1556 1553 1550 1547 1544 1541 1538
1550 1546 1551 1559 1568 1570 1573 1577 1579 1582 1587 1590 1592 1597 1602 1604 1604 1605 1606 1606 1606 1606 1605 1604 1602 1600 1598 1596 1594 1591 1589 1586 1584 1581 1578 1576 1573 1570 1568 1564 1561 1558 1554 1551 1547 1544 1541 1537 1534
1550 1548 1550 1557 1570 1572 1575 1578 1579 1582 1586 1590 1591 1596 1600 1602 1603 1604 1605 1605 1605 1604 1604 1602 1601 1599 1597 1595 1592 1590 1587 1585 1583 1580 1577 1575 1572 1569 1566 1563 1559 1556 1552 1549 1545 1541 1538 1534 1531
1549 1549 1550 1555 1567 1571 1575 1578 1580 1582 1585 1589 1591 1593 1595 1599 1600 1602 1603 1603 1603 1603 1602 1601 1599 1598 1596 1593 1591 1589 1586 1584 1581 1578 1576 1573 1570 1567 1564 1561 1557 1554 1550 1546 1542 1538 1534 1530 1527
1550 1552 1554 1555 1561 1569 1574 1579 1581 1583 1585 1589 1590 1590 1589 1593 1597 1600 1602 1602 1602 1601 1600 1599 1598 1596 1594 1592 1590 1587 1585 1582 1579 1576 1574 1571 1568 1564 1561 1558 1554 1551 1547 1543 1539 1535 1530 1526 1522
1551 1555 1561 1562 1560 1566 1573 1577 1581 1584 1586 1589 1590 1591 1591 1592 1596 1598 1600 1601 1600 1599 1598 1597 1595 1594 1592 1590 1587 1585 1582 1579 1577 1574 1571 1568 1564 1561 1557 1554 1550 1546 1542 1538 1534 1530 1526 1521 1517
1555 1561 1563 1565 1564 1567 1573 1577 1580 1582 1584 1584 1586 1588 1589 1592 1594 1597 1599 1598 1597 1596 1596 1594 1593 1591 1590 1587 1585 1582 1580 1577 1574 1571 1568 1564 1561 1557 1553 1549 1545 1541 1537 1533 1529 1525 1521 1517 1513
1560 1564 1565 1568 1568 1570 1573 1576 1579 1579 1580 1580 1581 1583 1586 1589 1592 1594 1596 1595 1594 1593 1593 1592 1591 1589 1587 1585 1582 1580 1577 1574 1571 1568 1564 1560 1557 1553 1549 1545 1540 1536 1532 1528 1524 1520 1517 1513 1509
1563 1567 1569 1570 1570 1572 1574 1576 1577 1578 1578 1579 1580 1581 1584 1587 1590 1592 1593 1592 1592 1591 1590 1589 1588 1586 1584 1582 1579 1577 1574 1571 1568 1565 1561 1557 1553 1549 1545 1540 1536 1533 1529 1525 1521 1516 1512 1509 1505
1564 1567 1570 1572 1573 1574 1575 1575 1576 1574 1575 1577 1579 1580 1582 1585 1587 1589 1589 1589 1589 1588 1587 1586 1585 1584 1582 1579 1577 1574 1571 1568 1565 1562 1558 1554 1550 1546 1541 1537 1533 1529 1525 1521 1517 1513 1509 1504 1500
1565 1568 1571 1572 1572 1574 1575 1574 1570 1570 1572 1575 1577 1579 1581 1583 1585 1585 1585 1586 1586 1584 1584 1583 1582 1581 1579 1576 1574 1571 1568 1565 1562 1559 1555 1551 1547 1542 1538 1534 1530 1526 1522 1518 1514 1509 1505 1501 1496
1563 1564 1568 1568 1569 1572 1577 1572 1560 1565 1569 1573 1575 1577 1578 1580 1581 1582 1582 1582 1582 1580 1580 1579 1579 1578 1575 1573 1570 1567 1565 1562 1559 1556 1552 1548 1544 1539 1535 1531 1527 1523 1519 1515 1511 1506 1502 1497 1492
1562 1560 1556 1567 1567 1569 1573 1567 1563 1563 1566 1569 1572 1573 1575 1576 1577 1578 1578 1577 1577 1577 1576 1576 1575 1574 1572 1570 1567 1564 1562 1559 1556 1553 1549 1545 1541 1536 1532 1528 1524 1520 1516 1512 1508 1503 1498 1493 1487
1557 1552 1549 1556 1563 1565 1568 1563 1561 1561 1563 1565 1567 1569 1571 1571 1572 1573 1574 1573 1572 1572 1572 1572 1571 1570 1568 1566 1564 1561 1559 1556 1553 1549 1546 1542 1538 1534 1529 1525 1521 1517 1513 1509 1504 1499 1495 1490 1484
1553 1554 1554 1553 1559 1562 1561 1557 1553 1556 1559 1561 1562 1564 1565 1566 1568 1569 1569 1568 1567 1567 1568 1568 1567 1566 1565 1563 1560 1558 1556 1553 1550 1546 1543 1539 1535 1530 1526 1522 1518 1514 1510 1506 1501 1496 1491 1485 1480
1555 1555 1552 1556 1558 1559 1557 1552 1546 1548 1550 1553 1556 1558 1559 1561 1563 1563 1563 1563 1562 1562 1563 1563 1563 1562 1561 1559 1557 1554 1551 1549 1546 1543 1539 1535 1531 1527 1523 1519 1515 1511 1507 1502 1498 1493 1488 1481 1477
1552 1553 1556 1557 1553 1553 1559 1550 1544 1544 1548 1551 1552 1553 1554 1554 1556 1557 1557 1556 1557 1558 1558 1558 1559 1558 1557 1555 1553 1550 1548 1545 1542 1539 1536 1532 1528 1524 1520 1516 1512 1508 1504 1499 1495 1490 1485 1478 1472
1555 1556 1557 1558 1561 1555 1555 1559 1548 1545 1547 1547 1546 1547 1547 1548 1550 1551 1550 1550 1551 1552 1553 1554 1554 1554 1553 1551 1549 1546 1544 1541 1538 1535 1531 1527 1524 1520 1516 1512 1508 1504 1500 1496 1491 1487 1482 1476 1469
1556 1556 1558 1558 1559 1559 1551 1557 1543 1541 1544 1541 1539 1539 1540 1542 1544 1545 1545 1545 1546 1547 1547 1549 1550 1550 1549 1547 1545 1543 1540 1537 1534 1531 1527 1524 1520 1516 1512 1508 1504 1500 1496 1492 1487 1483 1478 1473 1467
1556 1557 1556 1558 1559 1561 1544 1550 1543 1538 1531 1530 1531 1532 1534 1536 1538 1540 1541 1541 1541 1541 1542 1544 1545 1545 1544 1543 1541 1539 1537 1534 1530 1527 1523 1519 1515 1512 1508 1505 1500 1496 1492 1488 1483 1478 1473 1468 1463
1556 1559 1561 1562 1566 1552 1542 1546 1540 1523 1522 1524 1526 1528 1529 1531 1533 1534 1535 1534 1534 1535 1537 1539 1540 1540 1540 1539 1537 1535 1533 1530 1527 1523 1519 1515 1511 1507 1504 1500 1496 1492 1488 1483 1479 1474 1469 1464 1459
1551 1556 1564 1566 1559 1548 1544 1546 1527 1517 1519 1521 1523 1524 1526 1527 1527 1528 1528 1529 1529 1530 1532 1534 1535 1536 1535 1534 1533 1531 1529 1526 1523 1520 1516 1512 1508 1503 1499 1496 1492 1487 1483 1479 1475 1470 1465 1460 1455
1552 1551 1554 1560 1552 1555 1544 1527 1519 1518 1518 1519 1520 1521 1521 1522 1522 1522 1523 1523 1524 1525 1526 1528 1530 1531 1530 1530 1529 1527 1525 1522 1519 1516 1512 1508 1504 1500 1496 1491 1487 1483 1479 1475 1470 1465 1460 1456 1450
1555 1553 1556 1560 1562 1564 1543 1527 1524 1520 1515 1514 1515 1515 1514 1516 1516 1516 1517 1517 1518 1519 1521 1523 1525 1525 1525 1525 1524 1523 1521 1518 1515 1511 1508 1504 1500 1496 1492 1487 1483 1479 1475 1470 1466 1461 1456 1451 1446
1556 1555 1554 1553 1553 1564 1558 1538 1504 1505 1504 1507 1508 1508 1508 1509 1509 1510 1511 1512 1513 1514 1516 1518 1519 1520 1520 1520 1520 1518 1516 1514 1511 1507 1504 1500 1496 1492 1487 1483 1479 1474 1470 1466 1461 1456 1451 1447 1441
1544 1544 1548 1557 1553 1551 1556 1538 1500 1499 1500 1502 1503 1504 1504 1504 1504 1504 1505 1506 1507 1508 1510 1512 1514 1515 1515 1515 1515 1514 1512 1510 1507 1503 1500 1496 1492 1488 1484 1479 1475 1470 1466 1461 1456 1451 1447 1442 1437